Погода в Корнилово

Россия / Алтайский край     53°31′01″N   81°04′16″E
темп.,
°C
ветер,
м/с
пор.,
м/с
влажн.,
%
обл.,
%
осадки,
мм/ч
давл.,
гПа
погр.,
м
30 июня, чт
чт3001:00+11з614870 1.1 997515
04:00+8зюз411880 0.0 999398
07:00+9юз612830 0.0 1001679
10:00+13юз9125880 0.0 10011509
13:00+16зюз811476 0.0 10021642
16:00+18юз78443 0.0 10031792
19:00+18юз58477 0.0 10021915
22:00+13з46685 0.0 100386
1 июля, пт
пт101:00+10з36760 0.0 1005101
04:00+9зюз35743 0.0 100572
07:00+10юз49720 0.0 1006256
10:00+16зюз69540 0.0 10051406
13:00+19зюз8114321 0.0 10052087
16:00+15з61157100 0.0 1006858
19:00+16з6964100 0.0 1007903
22:00+14зсз597897 0.0 1008447
2 июля, сб
сб201:00+11зюз489229 0.0 1008207
04:00+10юз499640 0.0 1009205
07:00+11зюз489159 0.0 1009295
10:00+14зюз4682100 0.0 1010420
13:00+15зюз5673100 0.0 1010558
16:00+17з5664100 0.1 1010716
19:00+18зсз346580 0.1 1010650
22:00+13сз228511 0.0 101010
3 июля, вс
вс301:00+12зсз11873 0.0 101011
04:00+11з11885 0.0 100910
07:00+13с00815 0.0 100942
10:00+18сз11615 0.0 1009652
13:00+22юз22478 0.0 10081896
16:00+20сз2357100 0.0 1007286
19:00+21ссв21480 0.0 1006479
22:00+15всв34760 0.0 100558
4 июля, пн
пн401:00+13св358351 0.0 100467
04:00+12всв3586100 0.0 100279
07:00+13всв3779100 0.0 1000151
10:00+16св5973100 0.1 998304
13:00+17св4872100 0.2 997596
16:00+19св686498 0.0 996990
19:00+18св4664100 0.0 995733
22:00+16ссв577699 0.0 995195